DateTimeUTC,F1_A11,F1_S11,BsB_S11,BsG_S11,BsR_S11,BbsB_S11,BbsG_S11,BbsR_S11,BaB_A11,BaG_A11,BaR_A11,Tu_S11,T_S11,Uu_S11,U_S11,P_S11,T1_A11
2021-05-28T02:00:00Z,00000200,20000000,,,,,,,0000.07,0000.36,0000.06,17.5,24.5,03.2,02.1,0677.9,30.8
2021-05-28T02:01:00Z,00000200,20000000,,,,,,,0000.43,0000.11,-000.15,17.5,24.6,03.2,02.1,0677.9,30.8
2021-05-28T02:02:00Z,00000200,20000000,,,,,,,-000.24,0000.58,0000.46,17.5,24.6,03.2,02.1,0677.9,30.8
2021-05-28T02:03:00Z,00000200,60000000,,,,,,,0000.60,-000.14,-000.07,17.5,24.6,03.2,02.1,0677.9,30.8
2021-05-28T02:04:00Z,00000200,40000000,0001.65,0000.56,0000.48,-000.10,-000.01,-000.05,0000.34,0000.83,0000.22,17.6,24.3,03.0,02.0,0678.9,30.8
2021-05-28T02:05:00Z,00000200,00000000,0001.02,0000.20,0000.58,0000.26,0000.16,0000.14,0000.84,0000.51,0000.37,17.6,24.3,02.9,01.9,0678.9,30.8
2021-05-28T02:06:00Z,00000200,00000000,0001.26,0000.41,0000.31,0000.15,0000.10,-000.11,0000.45,0000.07,0000.21,17.6,24.3,02.8,01.9,0678.9,30.8
2021-05-28T02:07:00Z,00000200,00000000,0000.77,0000.35,0000.55,-000.08,0000.37,0000.38,0000.62,0000.76,0000.34,17.6,24.2,02.7,01.8,0679.0,30.8
2021-05-28T02:08:00Z,00000200,00000000,0001.46,0000.66,0000.45,0000.08,0000.01,-000.14,0000.46,-000.01,0000.49,17.6,24.2,02.7,01.8,0679.0,30.8
2021-05-28T02:09:00Z,00000200,00000000,0001.30,0000.80,0000.31,-000.02,0000.37,0000.30,0000.46,0000.86,0000.36,17.6,24.2,02.8,01.9,0679.1,30.8
2021-05-28T02:10:00Z,00000200,00000000,0002.08,0000.92,0000.56,0000.66,0000.16,0000.17,0000.85,0000.38,0000.36,17.6,24.2,02.6,01.8,0679.1,30.8
2021-05-28T02:11:00Z,00000200,00000000,0002.37,0001.20,0001.05,0000.14,0000.42,0000.22,0002.13,0002.00,0001.54,17.6,24.2,02.5,01.7,0679.2,30.8
2021-05-28T02:12:00Z,00000200,00000000,0003.42,0001.98,0001.05,0000.82,0000.31,0000.18,0012.88,0012.18,0009.04,17.6,24.2,02.5,01.7,0679.2,30.8
2021-05-28T02:13:00Z,00000200,00000000,0003.03,0002.37,0001.68,0000.70,0000.41,0000.62,0020.29,0017.91,0014.06,17.6,24.2,02.3,01.5,0679.2,30.8
2021-05-28T02:14:00Z,00000200,00000000,0004.98,0003.35,0002.06,0000.97,0000.54,0000.43,0046.18,0042.26,0033.31,17.6,24.2,02.3,01.6,0679.1,30.8
2021-05-28T02:15:00Z,00000200,00000000,0003.68,0002.57,0001.51,0000.57,0000.58,0000.44,0037.92,0035.07,0027.45,17.6,24.2,02.4,01.6,0679.1,30.8
2021-05-28T02:16:00Z,00000200,00000000,0002.13,0001.18,0000.74,0000.62,0000.10,0000.28,0010.74,0009.90,0008.12,17.6,24.2,02.5,01.7,0679.1,30.8
2021-05-28T02:17:00Z,00000200,00000000,0000.92,0000.52,0000.59,-000.08,0000.14,0000.51,0001.70,0001.55,0000.93,17.6,24.2,02.7,01.8,0679.1,30.8
2021-05-28T02:18:00Z,00000200,00000000,0001.25,0000.92,0000.34,-000.12,0000.34,0000.54,0001.00,0001.06,0000.62,17.6,24.2,02.9,01.9,0679.0,30.8
2021-05-28T02:19:00Z,00000200,00000000,0000.99,0001.05,0000.83,0000.52,0000.35,0000.47,0000.99,0000.70,0000.75,17.6,24.2,03.0,02.0,0679.1,30.8
2021-05-28T02:20:00Z,00000200,00000000,0001.76,0000.72,0000.82,0000.04,0000.04,0000.11,0000.82,0000.65,0000.56,17.6,24.2,03.1,02.1,0679.2,30.8
2021-05-28T02:21:00Z,00000200,00000000,0001.71,0001.28,0000.76,-000.18,0000.48,0000.25,0000.81,0000.84,0000.54,17.6,24.1,03.1,02.0,0679.3,30.8
2021-05-28T02:22:00Z,00000200,00000000,0002.49,0002.00,0001.20,0000.42,0000.56,0000.40,0008.72,0008.33,0006.56,17.6,24.1,03.0,02.0,0679.3,30.8
2021-05-28T02:23:00Z,00000200,00000000,0002.21,0001.30,0001.15,0000.13,0000.45,0000.10,0001.32,0000.65,0000.43,17.6,24.1,02.9,01.9,0679.2,30.8
2021-05-28T02:24:00Z,00000200,00000000,0002.51,0001.29,0000.75,0000.27,0000.19,0000.02,0001.06,0001.21,0000.18,17.6,24.1,02.7,01.8,0679.2,30.8
2021-05-28T02:25:00Z,00000200,00000000,0001.64,0001.16,0001.02,0000.20,0000.31,0000.13,0000.94,0000.41,0001.25,17.6,24.1,02.8,01.9,0679.2,30.8
2021-05-28T02:26:00Z,00000200,00000000,0001.53,0000.79,0000.73,0000.16,0000.21,0000.39,0000.97,0001.23,0000.64,17.6,24.1,03.0,02.0,0679.2,30.8
2021-05-28T02:27:00Z,00000200,00000000,0001.35,0000.60,0000.54,0000.40,-000.08,0000.44,0000.94,0000.73,0000.60,17.6,24.1,03.3,02.2,0679.1,30.8
2021-05-28T02:28:00Z,00000200,00000000,0001.07,0000.82,0000.92,-000.40,0000.03,0000.22,0001.12,0001.14,0001.08,17.6,24.1,03.6,02.4,0679.0,30.8
2021-05-28T02:29:00Z,00000200,00000000,0005.54,0003.76,0002.53,0000.84,0001.08,0000.59,0057.40,0051.82,0040.08,17.6,24.1,03.8,02.5,0679.0,30.8
2021-05-28T02:30:00Z,00000200,00000000,0007.96,0005.74,0003.41,0001.22,0001.17,0000.83,0116.67,0107.22,0084.41,17.6,24.1,03.8,02.6,0679.1,30.8
2021-05-28T02:31:00Z,00000200,00000000,0002.07,0001.15,0000.99,0000.59,0000.44,0000.20,0008.16,0007.53,0005.89,17.6,24.1,03.8,02.6,0679.1,30.8
2021-05-28T02:32:00Z,00000200,00000000,0007.23,0005.06,0003.51,0001.40,0001.45,0000.93,0091.13,0082.63,0064.42,17.6,24.1,03.9,02.6,0679.1,30.8
2021-05-28T02:33:00Z,00000200,00000000,0009.31,0006.63,0004.14,0001.96,0001.44,0001.42,0135.73,0124.26,0097.38,17.6,24.1,03.8,02.6,0679.0,30.8
2021-05-28T02:34:00Z,00000200,00000000,0008.87,0006.60,0004.33,0002.27,0001.73,0001.04,0134.08,0122.49,0095.48,17.6,24.1,03.8,02.5,0679.0,30.8
2021-05-28T02:35:00Z,00000200,00000000,0011.34,0007.21,0004.68,0002.31,0001.61,0001.21,0152.36,0139.34,0109.72,17.6,24.1,03.6,02.4,0679.0,30.8
2021-05-28T02:36:00Z,00000200,00000000,0002.03,0001.42,0000.72,0000.52,0000.48,0000.45,0023.92,0022.42,0017.77,17.6,24.1,03.7,02.5,0679.0,30.8
2021-05-28T02:37:00Z,00000200,00000000,0002.05,0000.89,0000.87,-000.12,0000.35,0000.23,0002.79,0002.44,0002.10,17.6,24.0,03.8,02.6,0679.0,30.8
2021-05-28T02:38:00Z,00000200,00000000,0001.19,0000.71,0000.54,0000.21,0000.52,0000.37,0001.73,0001.77,0001.00,17.7,24.1,03.9,02.6,0679.0,30.8
2021-05-28T02:39:00Z,00000200,00000000,0000.63,0000.75,0000.35,-000.16,0000.14,0000.21,0001.59,0001.17,0001.37,17.7,24.1,04.0,02.7,0679.1,30.8
2021-05-28T02:40:00Z,00000200,00000000,0001.18,0000.60,0000.67,0000.02,-000.10,0000.34,0000.90,0000.96,0000.46,17.7,24.1,04.2,02.9,0679.0,30.8
2021-05-28T02:41:00Z,00000200,00000000,0001.19,0000.76,0000.87,0000.04,0000.31,0000.19,0001.06,0000.79,0000.76,17.7,24.1,04.4,03.0,0679.1,30.8
2021-05-28T02:42:00Z,00000200,00000000,0001.42,0000.60,0000.79,-000.10,0000.41,-000.07,0000.81,0001.22,0000.79,17.7,24.1,04.5,03.0,0679.1,30.8
2021-05-28T02:43:00Z,00000200,00000000,0001.83,0000.79,0000.22,0000.06,0000.36,0000.31,0000.58,0000.67,0000.62,17.6,24.1,04.5,03.0,0679.1,30.8
2021-05-28T02:44:00Z,00000200,00000000,0001.28,0000.56,0000.87,-000.37,-000.01,0000.29,0001.02,0000.68,0000.60,17.6,24.1,04.4,03.0,0679.0,30.8
2021-05-28T02:45:00Z,00000200,00000000,0000.99,0000.87,0000.36,0000.05,0000.14,0000.24,0000.93,0000.88,0000.38,17.7,24.1,04.4,03.0,0679.0,30.8
2021-05-28T02:46:00Z,00000200,00000000,0001.69,0000.80,0000.57,0000.49,0000.04,0000.35,0001.89,0001.60,0001.46,17.6,24.1,04.5,03.0,0679.0,30.8
2021-05-28T02:47:00Z,00000200,00000000,0002.13,0000.99,0000.77,0000.20,0000.51,0000.42,0009.85,0008.72,0006.57,17.7,24.1,04.5,03.0,0679.0,30.8
2021-05-28T02:48:00Z,00000200,00000000,0004.87,0003.54,0002.41,0000.56,0000.76,0000.68,0059.88,0054.42,0042.87,17.6,24.1,04.6,03.1,0679.0,30.8
2021-05-28T02:49:00Z,00000200,00000000,0005.10,0003.98,0002.68,0001.09,0000.67,0000.67,0064.04,0059.00,0045.77,17.6,24.1,04.7,03.2,0679.0,30.8
2021-05-28T02:50:00Z,00000200,00000000,0004.69,0003.48,0002.10,0000.89,0000.55,0000.55,0046.44,0042.84,0033.70,17.6,24.1,04.8,03.2,0679.0,30.8
2021-05-28T02:51:00Z,00000200,00000000,0003.27,0002.21,0001.36,0000.64,0000.60,0000.09,0025.15,0022.52,0017.44,17.6,24.1,04.8,03.2,0678.9,30.8
2021-05-28T02:52:00Z,00000200,00000000,0004.21,0002.82,0001.64,0000.81,0000.90,0000.31,0035.76,0032.86,0026.06,17.6,24.1,05.0,03.3,0678.9,30.8
2021-05-28T02:53:00Z,00000200,00000000,0004.90,0003.16,0002.26,0000.78,0000.73,0000.47,0038.17,0034.55,0026.61,17.6,24.0,05.0,03.4,0678.9,30.8
2021-05-28T02:54:00Z,00000200,00000000,0003.60,0002.68,0001.83,0000.53,0000.43,0000.54,0024.00,0021.96,0017.31,17.6,24.0,05.0,03.4,0678.9,30.8
2021-05-28T02:55:00Z,00000200,00000000,0002.29,0001.64,0001.25,0000.24,0000.56,0000.35,0008.90,0008.66,0006.63,17.6,24.0,04.9,03.3,0678.9,30.8
2021-05-28T02:56:00Z,00000200,00000000,0002.75,0001.55,0001.13,0000.59,0000.29,0000.29,0001.17,0000.80,0000.63,17.6,24.0,04.8,03.3,0678.9,30.8
2021-05-28T02:57:00Z,00000200,40000000,,,,,,,0002.16,0001.67,0001.77,17.7,24.1,04.4,03.0,0679.0,30.8
2021-05-28T02:58:00Z,00000200,60000000,,,,,,,0000.58,0000.93,0000.15,17.4,24.2,04.6,03.0,0677.9,30.8
2021-05-28T02:59:00Z,00000200,20000000,,,,,,,0000.56,0000.34,0000.55,17.4,24.3,04.6,03.0,0677.9,30.8
